Flugplatz Burg Feuerstein
 
.... wo jeder bestens aufgehoben ist! 

 

DSC04520

 


Täglich sind wir von 08.30 bis 12.30 Uhr und von 13.00 bis 16.45 Uhr unter 09194 - 79 75 75 

oder 

rund um die Uhr per Diese E-Mail-Adresse ist vor Spambots geschützt! Zur Anzeige muss JavaScript eingeschaltet sein! zu erreichen!

 

Flugbetrieb an jedem fliegbaren Tag von 9 Uhr bis 18 Uhr - nach Absprache auch flexibel darüber hinaus ! 

 


 
 

Wir bieten professionelle und trotzdem sehr günstige Ausbildung in 4 Sparten an:

Motorflug Motorsegler Segelflug Ultraleicht

Bei unseren Gebühren gibt keine „versteckten Kosten“ wie

  • Baustunden oder finanzielle Ausgleiche dafür
  • Verpflichtung zu Diensten oder finanzielle Ausgleiche dafür
  • Umschulungs- oder Typengebühren

Ebenso gibt es bei uns keinerlei zeitlicher Verpflichtungen zur Teilnahme am Flugbetrieb!

Kümmern Sie sich nur um Ihre fliegerischen Ambitionen – wir unterstützen Sie dabei professionell, individuell, zielorientiert und maximal flexibel!

Feuerstein News Ticker

Webcam Blick N

webcam 2

Webcam Blick NO

webcam 1

METAR EDDN

[Quelle: ADDS]
METAR
EDDN 231420Z 28005KT 240V320 CAVOK 18/03 Q1026 NOSIG =
EDDN 231100Z 2312/2412 29005KT CAVOK BECMG 2318/2320 VRB03KT TEMPO 2321/2324 01005KT PROB30 TEMPO 2404/2407 BKN013 BECMG 2409/2411 29006KT
TAF
EDDN 231100Z 2312/2412 29005KT CAVOK BECMG 2318/2320 VRB03KT TEMPO 2321/2324 01005KT PROB30 TEMPO 2404/2407 BKN013 BECMG 2409/2411 29006KT =
SR / SS: 05:11 / 17:32 UTC (EDQE 2019-03-23)

Wetter EDQE


Das Wetter heute
Das Wetter morgen